User: anonymous   Login
Location: Unspecified
(40.4667°N, 0.0000°E)
Time: 17:01:35
(UTC+00:00)
Language:

ISS - Orbit

View from above orbital plane
View from above orbital plane
View from above satellite
View from above satellite

Ground track
Ground track

The orbit data is extracted from the following two-line orbital elements,

1 25544U 98067A   19172.54985197  .00016717  00000-0  10270-3 0  9049
2 25544  51.6390 339.6499 0008053  71.7729 288.4298 15.51175528 15926
Epoch (UTC): 21 June 2019 13:11:47
Eccentricity: 0.0008053
inclination: 51.6390°
perigee height: 408 km
apogee height: 419 km
right ascension of ascending node: 339.6499°
argument of perigee: 71.7729°
revolutions per day: 15.51175528
mean anomaly at epoch: 288.4298°
orbit number at epoch: 1592

The dashed part of the orbit path shows where the satellite is in the earth's shadow,  

DLR